C/2008 Q3 ( Garradd )

Japanese version
Home page
Total 6,336 html files since Dec. 4, 1995
Updated on October 21, 2008

---------------------------------------------------------------------

* Profile

Discovery Date August 27, 2008
Magnitude 19.2 mag
Discoverer G. J. Garradd (Siding Spring Survey)

* Orbital Elements

Epoch 2009 June 18.0 TT = JDT 2455000.5
T 2009 June 23.14110 TT                                 MPC
q   1.7960220            (2000.0)            P               Q
z  +0.0005642      Peri.  340.92778     -0.56529943     -0.71875897
 +/-0.0001291      Node   219.72416     -0.65029718     +0.08644006
e   0.9989867      Incl.  140.70455     -0.50749397     +0.68986496

* Finding Charts

* Magnitudes Graph

        m1 = 10.5 + 5 log d + 10.0 log r

---------------------------------------------------------------------

The orbital elements are published on M.P.E.C. 2008-U19.
The charts are made with StellaNavigator Ver.8 (AstroArts).
The magnitudes graphs are made with Comet for Windows.

---------------------------------------------------------------------

Copyright(C) 1995-2008 Seiichi Yoshida (comet@aerith.net). All rights reserved.